Martinsburg, WV

5:53 PM EDT on July 20, 2017 (GMT -0400)
Eastern W Va Regional-Shepherd

Weather History for KMRB - June, 2013

Change the Weather History Date:

Thursday, June 20, 2013

  Actual Average Record
Temperature  
Mean Temperature 69 °F 72 °F  
Max Temperature 79 °F 83 °F 98 °F (1931)
Min Temperature 58 °F 60 °F 45 °F (1926)
Degree Days  
Heating Degree Days 0 0  
Month to date heating degree days 2 22  
Since 1 June heating degree days 2 22  
Since 1 July heating degree days 4908 5247  
Cooling Degree Days 4 7  
Month to date cooling degree days 124 101  
Year to date cooling degree days 235 158  
Since 1 June cooling degree days 124 101  
Growing Degree Days 18 (Base 50)    
Moisture  
Dew Point 60 °F    
Average Humidity 74    
Maximum Humidity 93    
Minimum Humidity 54    
Precipitation  
Precipitation 0.00 in 0.13 in 1.07 in (1958)
Month to date precipitation 2.81 2.56  
Year to date precipitation 14.07 18.29  
Sea Level Pressure  
Sea Level Pressure 30.22 in    
Wind  
Wind Speed 4 mph (SSE)    
Max Wind Speed 15 mph    
Max Gust Speed 41 mph    
Visibility 10 miles    
Events      
T = Trace of Precipitation, MM = Missing Value Source: NWS Daily Summary

Daily Weather History Graph

Daily Weather History Graph

Search for Another Location

Airport or City:

Trip Planner

Search our weather history database for the weather conditions in past years. The results will help you decide how hot, cold, wet, or windy it might be!

Date:

Astronomy

Jun. 20, 2013 Rise Set
Actual Time 5:45 AM EDT 8:42 PM EDT
Civil Twilight 5:12 AM EDT 9:14 PM EDT
Nautical Twilight 4:31 AM EDT 9:55 PM EDT
Astronomical Twilight 3:44 AM EDT 10:43 PM EDT
Moon 5:42 PM EDT 3:09 AM EDT
Length of Visible Light 16h 01m
Length of Day
14h 57m
Waxing Gibbous, 89% of the Moon is Illuminated
Jun 20
Waxing Gibbous
Jun 23
Full
Jun 30
Last Quarter
Jul 8
New
Jul 15
First Quarter

Hourly Weather History & Observations

Time (EDT) Temp. Dew Point Humidity Pressure Visibility Wind Dir Wind Speed Gust Speed Precip Events Conditions
12:53 AM 60.1 °F 57.9 °F 93% 30.17 in 10.0 mi Calm Calm - N/A   Clear
1:53 AM 57.9 °F 55.9 °F 93% 30.18 in 10.0 mi Calm Calm - N/A   Clear
2:53 AM 60.1 °F 57.0 °F 90% 30.18 in 10.0 mi Calm Calm - N/A   Clear
3:53 AM 60.1 °F 57.0 °F 90% 30.18 in 10.0 mi Calm Calm - N/A   Mostly Cloudy
4:53 AM 59.0 °F 55.9 °F 90% 30.19 in 10.0 mi Calm Calm - N/A   Mostly Cloudy
5:53 AM 60.1 °F 55.9 °F 86% 30.21 in 10.0 mi Calm Calm - N/A   Mostly Cloudy
6:53 AM 61.0 °F 57.0 °F 87% 30.22 in 10.0 mi Calm Calm - N/A   Overcast
7:53 AM 64.0 °F 59.0 °F 84% 30.23 in 10.0 mi Calm Calm - N/A   Mostly Cloudy
8:53 AM 66.9 °F 62.1 °F 84% 30.25 in 7.0 mi Calm Calm - N/A   Mostly Cloudy
9:46 AM 69.8 °F 62.6 °F 78% 30.26 in 8.0 mi Calm Calm - N/A   Overcast
9:53 AM 70.0 °F 64.0 °F 81% 30.25 in 7.0 mi Calm Calm - N/A   Overcast
10:53 AM 73.0 °F 64.0 °F 73% 30.25 in 8.0 mi SSE 8.1 mph - N/A   Overcast
11:53 AM 75.0 °F 64.0 °F 69% 30.25 in 10.0 mi SSE 12.7 mph - N/A   Mostly Cloudy
12:53 PM 75.0 °F 61.0 °F 62% 30.24 in 10.0 mi SSE 11.5 mph 20.7 mph N/A   Mostly Cloudy
1:53 PM 77.0 °F 62.1 °F 60% 30.23 in 10.0 mi SSE 10.4 mph - N/A   Scattered Clouds
2:53 PM 78.1 °F 61.0 °F 56% 30.23 in 10.0 mi South 9.2 mph - N/A   Partly Cloudy
3:53 PM 79.0 °F 61.0 °F 54% 30.22 in 10.0 mi SE 9.2 mph - N/A   Scattered Clouds
4:53 PM 79.0 °F 61.0 °F 54% 30.22 in 10.0 mi SSE 10.4 mph 17.3 mph N/A   Scattered Clouds
5:53 PM 78.1 °F 61.0 °F 56% 30.21 in 10.0 mi SSE 6.9 mph - N/A   Partly Cloudy
6:53 PM 75.9 °F 61.0 °F 60% 30.22 in 10.0 mi SE 5.8 mph - N/A   Clear
7:53 PM 73.9 °F 60.1 °F 62% 30.23 in 10.0 mi SSE 6.9 mph - N/A   Clear
8:53 PM 71.1 °F 60.1 °F 68% 30.22 in 10.0 mi SSE 4.6 mph - N/A   Clear
9:53 PM 68.0 °F 60.1 °F 76% 30.24 in 10.0 mi SSE 3.5 mph - N/A   Clear
10:53 PM 66.9 °F 57.9 °F 73% 30.25 in 10.0 mi South 3.5 mph - N/A   Clear
11:53 PM 64.9 °F 57.0 °F 75% 30.25 in 10.0 mi Calm Calm - N/A   Clear